Wind_Speed
20 20 20 19 19 20 20 20 19 18 16 15 15 15 16 16 15 14 13 13 14 15 16 16 16 16 16 16 17 17 17 17 17 17 17 17 17 17 16 16 16 17
19 19 20 19 20 21 20 19 19 17 16 16 15 16 16 16 16 14 13 13 14 16 17 17 16 16 16 17 17 17 17 16 17 17 17 17 17 16 16 16 17 17
19 19 19 19 20 20 19 19 18 18 17 16 16 16 16 16 15 14 14 14 15 16 17 16 16 16 16 16 16 16 16 16 17 17 16 16 16 16 16 17 17 18
19 19 19 20 20 20 19 18 18 19 18 17 16 16 16 16 15 15 14 14 15 16 16 15 15 15 15 15 15 16 16 17 17 16 16 16 16 16 16 17 18 18
20 20 20 21 21 20 20 19 19 19 18 17 17 17 18 17 16 15 14 15 15 16 16 15 15 15 14 15 16 17 17 17 16 16 16 16 16 16 17 17 18 18
21 21 21 22 22 20 20 19 19 19 18 18 18 19 19 17 16 16 15 16 16 16 16 16 15 15 15 15 16 16 16 16 15 15 16 16 16 16 17 17 18 18
21 21 22 23 22 21 20 20 19 18 18 19 20 19 19 18 17 16 16 17 17 17 17 16 15 15 15 16 16 16 16 16 15 15 15 16 16 16 17 17 18 18
21 22 23 23 23 21 20 20 19 18 19 20 21 20 19 18 18 17 17 17 17 17 17 17 16 16 16 16 16 16 17 16 16 16 16 16 17 17 17 17 17 17
22 23 23 24 23 22 21 20 19 19 20 21 21 20 20 19 18 17 17 18 18 18 18 18 17 17 17 17 18 18 18 18 17 18 17 17 17 16 16 16 16 17
23 24 24 24 24 23 22 20 19 20 21 22 21 21 20 19 18 18 18 18 18 18 19 19 19 19 19 19 19 20 20 19 19 19 18 18 17 16 15 15 16 16
24 24 24 25 24 23 22 21 21 21 21 22 22 21 20 19 19 18 18 19 18 18 19 19 20 19 19 19 20 21 21 21 21 21 20 19 18 17 15 15 15 16
25 25 25 26 26 24 23 22 22 21 21 22 22 22 21 20 19 19 19 19 18 18 18 19 19 19 19 20 21 21 21 22 23 24 23 23 21 19 16 15 15 15
25 25 26 27 27 25 24 23 22 21 21 22 22 22 21 20 20 20 19 18 18 17 17 17 18 18 18 20 21 21 22 24 25 24 24 24 22 19 17 15 15 14
26 26 27 28 27 26 25 24 23 21 21 21 21 21 21 20 20 20 19 18 17 16 16 16 17 18 19 21 21 22 25 27 25 22 21 20 20 18 16 14 14 14
27 27 28 28 28 27 27 25 23 22 22 21 21 21 20 20 21 20 19 17 15 15 15 16 18 19 21 22 23 24 25 24 21 18 17 18 17 16 15 13 14 14
28 29 29 28 28 29 28 25 24 23 22 21 21 20 20 20 20 19 18 17 16 16 17 18 19 20 22 22 22 23 22 19 17 16 16 16 15 15 13 13 13 13
29 29 28 28 29 30 28 26 24 23 22 21 20 19 19 20 19 19 19 18 17 17 18 19 19 21 22 20 19 20 19 17 16 15 16 15 14 13 13 12 12 12
30 29 27 29 30 30 28 26 24 23 21 20 19 18 19 19 20 20 20 19 18 18 20 20 19 19 19 17 17 19 18 17 16 14 15 14 13 13 12 11 11 12
30 29 28 30 30 29 28 27 24 22 21 19 18 18 18 20 21 21 20 19 19 19 20 19 18 17 17 16 18 18 18 17 15 14 14 13 12 12 12 10 10 12
29 29 29 30 30 30 29 26 23 21 19 18 18 17 19 21 22 21 20 20 19 20 20 19 18 18 17 17 17 18 18 17 15 13 13 13 12 12 11 10 11 12
29 28 29 30 30 30 29 26 23 21 19 18 18 18 20 21 22 21 21 21 21 20 20 19 20 20 18 18 18 18 18 17 15 13 14 14 13 12 11 12 12 12
28 28 29 30 31 31 28 25 23 20 18 18 19 20 21 22 22 22 22 23 22 21 20 20 21 20 18 19 19 19 19 18 15 15 15 15 13 12 12 13 12 11
26 26 28 31 32 30 27 24 21 19 18 18 20 21 22 22 23 23 23 23 23 22 21 21 21 20 19 20 21 20 20 19 17 16 16 15 13 13 13 12 12 12
24 25 29 32 31 29 26 23 21 19 19 20 21 22 22 22 23 23 23 23 22 22 22 21 21 21 20 21 22 22 21 21 19 18 18 15 13 13 13 12 12 12
24 26 29 31 29 27 25 23 21 21 21 22 22 23 22 23 23 23 23 23 23 23 22 21 22 23 22 23 24 23 22 22 21 20 19 15 13 13 12 12 12 12
24 25 28 29 27 25 23 23 23 23 23 23 23 23 23 23 23 22 22 23 23 23 20 19 20 23 25 26 25 22 22 23 21 20 18 15 12 12 11 11 12 13
Wind_Direction
267 264 261 257 246 242 243 245 253 258 256 253 247 243 244 249 254 252 249 246 248 253 257 260 260 259 261 263 267 273 277 281 284 285 288 290 293 294 295 296 294 292
263 260 257 250 240 241 244 247 254 256 254 251 246 242 240 245 255 257 252 248 250 256 260 261 261 261 262 265 270 275 278 281 283 285 288 291 294 295 296 295 292 291
259 257 252 245 239 242 245 248 253 255 252 249 245 243 241 244 252 253 248 247 251 257 260 262 263 263 264 267 272 276 278 281 283 286 290 292 294 294 294 293 292 292
256 254 247 241 238 242 246 250 253 253 250 246 243 242 241 244 250 248 245 247 252 258 262 263 264 263 266 270 274 277 280 283 284 288 290 292 293 293 294 294 294 293
252 250 244 238 239 242 247 252 254 251 247 243 241 239 240 244 247 247 246 248 255 260 262 262 261 263 268 273 277 281 283 284 286 289 290 290 291 292 294 294 293 294
248 246 241 237 239 243 247 251 253 250 244 240 239 238 240 245 246 247 248 251 257 260 260 260 261 265 272 276 280 283 284 286 288 289 289 289 291 293 294 293 293 294
246 246 242 238 238 241 244 248 250 248 242 239 239 239 242 246 247 248 250 254 257 259 259 259 262 268 273 277 280 282 285 287 288 287 287 290 293 293 292 292 292 292
244 246 244 239 239 240 241 244 246 244 240 238 239 241 243 245 248 250 252 255 257 259 259 259 264 270 273 276 279 282 285 288 286 286 287 290 291 290 290 291 291 291
243 246 245 241 238 238 239 241 242 241 241 241 240 242 244 246 249 252 253 256 259 260 259 260 264 269 272 275 279 283 287 288 285 286 288 288 288 287 288 288 289 289
243 245 246 242 238 237 239 239 239 241 243 244 243 244 247 249 251 253 255 258 260 261 260 261 265 269 274 278 281 285 288 287 284 285 286 285 284 285 285 285 285 285
242 245 245 242 238 237 239 238 238 241 245 246 245 246 248 251 252 254 256 258 261 263 263 263 266 271 277 281 284 287 288 286 284 285 284 282 280 281 282 281 281 281
240 243 244 242 240 238 239 239 240 242 245 247 248 248 249 251 252 253 256 259 263 265 265 267 271 276 282 286 287 288 287 286 285 284 284 282 280 280 279 277 277 278
240 241 242 242 241 239 239 240 242 243 245 247 248 249 251 252 252 253 256 260 265 268 270 271 275 279 283 285 285 284 283 284 282 283 285 285 282 280 276 273 275 277
239 238 240 240 240 239 239 241 243 244 244 246 248 249 251 252 253 254 258 263 268 272 273 273 275 277 279 282 283 282 282 282 279 280 284 286 283 279 273 272 274 274
237 236 237 238 237 237 240 242 243 244 244 245 247 249 250 251 253 257 261 266 270 273 272 272 273 276 279 283 284 282 280 277 274 276 282 285 282 276 272 271 272 273
235 234 235 235 235 237 241 242 243 244 245 245 246 248 250 251 255 260 263 266 268 270 271 270 272 277 283 285 282 278 273 267 266 274 280 281 276 270 269 270 272 276
235 234 234 233 233 236 240 241 243 244 245 246 247 248 250 252 257 261 263 265 268 271 274 274 275 281 284 282 274 269 265 260 263 272 275 273 269 266 267 269 272 275
233 232 232 231 232 235 238 240 242 245 246 248 248 249 251 254 258 261 263 267 269 271 275 276 277 280 282 278 270 265 260 257 261 266 268 269 266 263 265 267 269 272
231 230 231 231 232 234 237 239 242 245 247 250 251 250 250 253 257 261 265 268 268 268 272 274 274 275 276 273 268 262 255 253 255 260 263 265 261 259 263 264 262 267
230 228 230 231 232 234 236 239 243 246 248 251 252 251 251 254 259 262 266 267 266 266 270 272 271 272 273 272 266 258 251 248 250 255 258 258 256 256 260 261 259 265
230 228 228 230 230 233 236 238 242 246 249 251 251 251 252 255 260 264 265 265 265 268 271 272 274 276 276 275 269 257 247 245 248 252 254 255 256 256 257 259 261 264
230 227 226 228 229 232 235 238 241 246 250 251 252 253 253 256 260 263 264 265 268 271 272 274 279 281 278 276 269 255 245 245 247 250 254 257 257 255 256 258 261 261
230 226 224 226 229 232 235 239 243 247 251 253 253 254 255 256 258 261 263 267 270 270 269 272 277 279 277 274 266 252 244 245 247 249 255 258 255 253 257 260 260 257
228 224 223 226 228 231 235 240 244 248 251 253 253 254 254 254 255 259 262 265 268 268 268 271 276 279 278 273 263 249 242 245 248 249 251 253 252 253 257 260 259 258
227 224 225 228 228 230 235 240 244 247 249 250 252 254 255 255 257 260 263 264 267 268 270 276 282 283 281 273 262 249 241 245 248 249 251 252 250 251 255 258 258 259
226 225 227 229 227 229 235 241 245 248 250 254 257 258 258 258 258 262 265 267 269 270 276 283 285 284 285 280 268 252 245 246 248 254 263 265 256 249 253 256 257 259
Height
3144 3145 3146 3147 3148 3149 3150 3151 3152 3153 3153 3154 3155 3155 3155 3155 3155 3157 3157 3158 3159 3159 3159 3160 3160 3161 3161 3162 3162 3162 3163 3163 3163 3162 3162 3162 3161 3161 3160 3160 3159 3159
3142 3143 3144 3145 3146 3147 3148 3150 3150 3151 3151 3152 3153 3153 3154 3153 3154 3155 3155 3156 3157 3157 3157 3158 3158 3159 3159 3160 3160 3160 3161 3161 3161 3160 3160 3160 3159 3159 3159 3158 3157 3157
3140 3141 3141 3142 3144 3145 3146 3147 3148 3148 3149 3150 3150 3151 3152 3152 3152 3153 3154 3154 3155 3155 3156 3156 3156 3157 3157 3158 3158 3158 3159 3159 3159 3158 3158 3158 3157 3157 3156 3156 3155 3154
3138 3138 3139 3140 3141 3143 3144 3145 3145 3146 3147 3148 3148 3149 3150 3150 3151 3151 3152 3153 3153 3154 3154 3154 3155 3155 3156 3156 3156 3157 3157 3157 3157 3157 3156 3156 3155 3155 3154 3154 3153 3152
3135 3136 3137 3138 3139 3140 3141 3142 3143 3144 3145 3146 3146 3147 3148 3148 3149 3150 3150 3151 3152 3152 3152 3153 3153 3154 3154 3154 3155 3155 3155 3155 3155 3155 3154 3154 3153 3153 3152 3151 3151 3150
3133 3134 3135 3136 3137 3138 3139 3140 3141 3142 3143 3143 3144 3145 3146 3147 3147 3148 3149 3149 3150 3150 3151 3151 3152 3152 3152 3153 3153 3153 3154 3154 3153 3153 3152 3152 3151 3150 3150 3149 3148 3148
3131 3132 3133 3134 3135 3136 3137 3138 3139 3140 3141 3141 3142 3143 3144 3145 3146 3146 3147 3147 3148 3149 3149 3149 3150 3150 3151 3151 3151 3152 3152 3152 3151 3151 3150 3150 3149 3148 3148 3147 3146 3146
3128 3129 3130 3132 3133 3134 3135 3136 3137 3138 3139 3139 3140 3141 3143 3143 3144 3145 3145 3146 3146 3147 3147 3148 3148 3149 3149 3149 3150 3150 3150 3150 3149 3148 3148 3147 3146 3146 3145 3145 3144 3143
3125 3126 3128 3129 3130 3132 3133 3134 3135 3136 3136 3137 3138 3139 3141 3142 3142 3143 3143 3144 3144 3145 3145 3146 3147 3147 3147 3148 3148 3148 3148 3147 3147 3146 3146 3145 3144 3143 3143 3142 3142 3141
3122 3123 3125 3127 3128 3129 3131 3132 3133 3134 3134 3135 3136 3137 3138 3139 3140 3141 3141 3142 3142 3143 3144 3144 3145 3145 3146 3146 3146 3146 3146 3145 3144 3143 3143 3142 3142 3141 3141 3140 3140 3139
3120 3121 3122 3124 3126 3127 3129 3130 3131 3132 3132 3133 3134 3135 3136 3137 3138 3138 3139 3140 3141 3141 3142 3143 3143 3144 3144 3144 3144 3143 3143 3142 3141 3141 3140 3140 3139 3138 3138 3138 3137 3137
3117 3118 3119 3121 3123 3125 3127 3128 3129 3129 3130 3131 3132 3133 3134 3135 3136 3136 3137 3138 3139 3140 3140 3141 3141 3142 3142 3141 3141 3141 3140 3140 3139 3138 3138 3137 3137 3136 3136 3135 3135 3135
3115 3116 3117 3119 3121 3123 3125 3125 3126 3127 3128 3129 3130 3131 3132 3133 3134 3135 3135 3136 3137 3138 3138 3139 3139 3139 3139 3139 3138 3138 3138 3137 3136 3136 3136 3135 3134 3134 3134 3133 3133 3133
3112 3113 3115 3116 3118 3121 3122 3123 3124 3125 3126 3127 3128 3129 3130 3131 3131 3132 3133 3134 3135 3135 3136 3136 3136 3136 3136 3136 3135 3135 3135 3134 3134 3134 3133 3133 3132 3132 3132 3132 3132 3131
3109 3111 3112 3114 3116 3118 3119 3120 3121 3122 3123 3125 3126 3127 3128 3128 3129 3130 3131 3132 3132 3133 3133 3133 3133 3133 3133 3133 3133 3132 3132 3131 3131 3131 3131 3130 3130 3130 3130 3130 3130 3129
3106 3108 3110 3112 3114 3115 3117 3118 3119 3120 3121 3122 3124 3125 3125 3126 3127 3127 3128 3129 3130 3130 3130 3130 3130 3130 3130 3130 3130 3129 3129 3128 3129 3129 3128 3128 3128 3128 3128 3128 3128 3127
3103 3105 3107 3109 3111 3112 3114 3116 3117 3118 3119 3120 3121 3122 3123 3123 3124 3125 3125 3126 3127 3127 3127 3127 3127 3127 3127 3127 3127 3126 3126 3126 3126 3126 3126 3126 3126 3126 3126 3127 3126 3125
3100 3102 3105 3107 3108 3110 3112 3113 3114 3115 3116 3117 3119 3119 3120 3120 3121 3122 3122 3123 3124 3124 3124 3124 3124 3124 3124 3124 3124 3123 3123 3123 3123 3123 3123 3123 3124 3124 3124 3125 3124 3123
3097 3100 3102 3103 3105 3107 3109 3110 3111 3112 3113 3114 3116 3117 3117 3118 3118 3119 3120 3120 3121 3121 3121 3121 3121 3121 3121 3121 3121 3120 3121 3121 3121 3121 3121 3121 3121 3122 3122 3122 3122 3121
3095 3098 3099 3101 3103 3104 3106 3107 3108 3109 3111 3112 3113 3114 3114 3115 3115 3116 3117 3117 3118 3118 3118 3118 3118 3118 3118 3118 3118 3118 3118 3118 3118 3119 3119 3119 3119 3119 3120 3120 3120 3119
3093 3095 3096 3098 3100 3102 3103 3105 3106 3107 3108 3109 3110 3111 3111 3112 3112 3113 3114 3114 3115 3115 3115 3115 3115 3115 3115 3115 3115 3115 3115 3116 3116 3116 3117 3117 3117 3117 3118 3118 3118 3117
3090 3092 3094 3095 3097 3099 3100 3102 3103 3104 3105 3106 3107 3108 3108 3109 3109 3110 3110 3111 3111 3112 3113 3112 3112 3112 3112 3112 3112 3112 3112 3113 3114 3114 3114 3114 3114 3115 3115 3115 3115 3116
3087 3090 3091 3092 3094 3095 3097 3099 3100 3101 3102 3104 3104 3104 3105 3106 3107 3107 3108 3108 3108 3109 3110 3110 3110 3109 3110 3110 3110 3110 3110 3111 3112 3112 3112 3112 3112 3112 3113 3113 3113 3113
3085 3087 3088 3088 3090 3092 3094 3095 3097 3098 3100 3101 3101 3101 3102 3103 3104 3104 3104 3104 3105 3106 3107 3107 3107 3106 3106 3107 3107 3107 3107 3108 3109 3110 3110 3110 3110 3110 3110 3110 3111 3111
3081 3083 3084 3085 3086 3089 3091 3092 3094 3096 3097 3098 3098 3098 3099 3100 3100 3101 3101 3102 3102 3103 3104 3105 3105 3104 3103 3104 3104 3104 3104 3105 3106 3107 3107 3107 3107 3107 3108 3108 3108 3109
3078 3080 3080 3081 3083 3086 3088 3089 3091 3092 3093 3094 3094 3095 3096 3097 3098 3098 3099 3099 3100 3100 3102 3102 3102 3101 3101 3100 3100 3101 3102 3103 3104 3105 3106 3106 3105 3105 3105 3106 3106 3106